Regional Weather Roundup
Issued by NWS Upton, NY

Current Version | Previous Version | Graphics & Text | Print | Product List | Glossary On
Versions: 1 2 3 4 5 6 7 8 9 10 11 12 13 14 15 16 17 18 19 20 21 22 23 24 25 26 27 28 29 30 31 32 33 34 35 36 37 38 39 40 41 42 43 44 45 46 47 48 49 50
000
ASUS41 KOKX 201009
RWROKX

REGIONAL WEATHER ROUNDUP
NATIONAL WEATHER SERVICE NEW YORK NY
600 AM EDT SUN AUG 20 2017

NOTE: "FAIR" INDICATES FEW OR NO CLOUDS BELOW 12,000 FEET WITH NO
SIGNIFICANT WEATHER AND/OR OBSTRUCTIONS TO VISIBILITY.

NYZ071-072-176-178-NJZ106-104-201100-
NEW YORK CITY METRO AREA

CITY           SKY/WX    TMP DP  RH WIND       PRES   REMARKS
Central Park   CLEAR     70  61  73 VRB5      30.01R
Bronx Bot Gard   N/A     68  59  73 W3        30.00R
LaGuardia APRT CLEAR     71  63  75 NW15      29.97R
Kennedy INTL   PTCLDY    72  63  73 NW10      29.98R
Breezy Point     N/A     70 N/A N/A NW9         N/A
Newark/Liberty CLEAR     68  61  78 W7        29.99R
Teterboro      CLEAR     69  61  75 NW8       29.98R
$$

NYZ177-179-078>081-201100-
LONG ISLAND NEW YORK

CITY           SKY/WX    TMP DP  RH WIND       PRES   REMARKS
Jones Beach      N/A     70 N/A N/A NW8         N/A
Matinecock PT    N/A     70 N/A N/A W17         N/A
Farmingdale    CLEAR     69  61  75 NW7       29.96R
MacArthur/ISP  PTCLDY    69  62  78 NW6       29.95R
Shirley        CLEAR     70  64  81 NW7       29.95R
Mt Sinai Harb    N/A    N/A N/A N/A W8G14       N/A
Westhampton    CLEAR     67  62  84 NW3       29.95R
East Hampton   FAIR      70  64  79 NW6       29.92R
Montauk          N/A     73  65  75 W8        29.93R
$$

NYZ052-065-067-201100-
HUDSON VALLEY

CITY           SKY/WX    TMP DP  RH WIND       PRES   REMARKS
White Plains   CLEAR     68  61  78 W10G18    29.97R
Larchmont Harb   N/A     68 N/A N/A W10G16      N/A
Croton On Huds   N/A     70 N/A N/A W14         N/A
Newburgh       CLEAR     64  63  94 W14       29.99R
Montgomery     CLEAR     63  60  90 VRB5      29.99R
Poughkeepsie   CLEAR     65  60  84 SW6       29.96R
Albany         PTCLDY    65  59  81 SW7       29.97R
$$

NJZ001-105-106-008-010-013-015-019>022-104-201100-
NEW JERSEY

CITY           SKY/WX    TMP DP  RH WIND       PRES   REMARKS
Newark/Liberty CLEAR     68  61  78 W7        29.99R
Teterboro      CLEAR     69  61  75 NW8       29.98R
Caldwell       CLEAR     66  63  90 CALM      30.01R
Somerville     CLEAR     65  62  90 NW5       30.00R
Linden         FAIR      66  61  83 CALM      30.00R
Perth Amboy      N/A     66 N/A N/A W9          N/A
Sussex         CLEAR     61  61 100 CALM      30.01R
Andover          N/A     61  60  97 CALM      30.02R
Trenton        CLEAR     65  61  87 W6        30.02R
Millville      CLEAR     68  64  87 W7        30.03R
Atlantic City  CLEAR     67  61  81 NW8       30.01R
Wrightstown    CLEAR     66  61  83 NW8       29.98R
Toms River     CLEAR     66  61  84 W5        30.01R
Belmar         CLEAR     65  61  87 W8        30.01R
$$

PAZ047>061-062-071-201100-
EASTERN PENNSYLVANIA

CITY           SKY/WX    TMP DP  RH WIND       PRES   REMARKS
Philadelphia   PTCLDY    69  60  73 NW8       30.03R
Allentown      CLEAR     61  58  90 SW5       30.04R
Scranton       MOCLDY    62  61  96 SW6       30.05R
$$

CTZ002-004>006-009-010-012-RIZ004-006-007-MAZ004-011-015-201100-
SOUTHERN NEW ENGLAND
 IN CT

CITY           SKY/WX    TMP DP  RH WIND       PRES   REMARKS
Bradley INTL   PTCLDY    67  60  78 NW6       29.94R
Hartford       CLEAR     71  61  70 NW5       29.93R
Danbury        CLEAR     61  59  93 CALM      29.98R
Wtrbury/Oxford CLEAR     63  61  93 NW3       29.98R
Norwalk Harbor   N/A     68 N/A N/A W10         N/A
Bridgeport     CLEAR     68  61  78 W5        29.94R
Meriden        CLEAR     62  61  96 CALM      29.94R
New Haven      CLEAR     70  62  76 NW5       29.94R
Chester        FAIR      68  63  83 NW8       29.94R
Groton         CLEAR     70  64  81 NW9       29.91R
Wilimantic     CLEAR     64  63  96 CALM      29.93R

 IN RI

CITY           SKY/WX    TMP DP  RH WIND       PRES   REMARKS
Providence     PTCLDY    70  66  87 W7        29.90R
Block Island   CLEAR     70  68  93 W7        29.92R
Westerly       CLEAR     70  67  90 VRB3      29.92R
 IN MA

CITY           SKY/WX    TMP DP  RH WIND       PRES   REMARKS
Boston         PTCLDY    72  63  73 W10       29.87R
Worcester      CLEAR     65  57  75 W13       29.93R
Westfield      CLEAR     68  60  75 CALM      29.93R
Provincetown   CLEAR     68  67  96 SW6       29.88R
Nantucket      CLEAR     69  69 100 SW9       29.90R FOG
$$

ANZ330-335-338-340-345-350-353-355-201100-
COASTAL MARINE OBSERVATIONS


STATION/POSITION TIME  SKY/WX   TEMP    WIND        PRES    VSBY  WAVE
                                AIR SEA DIR/SP/G                  HT/PER
                 (UTC)          (F)     (DEG/KT/KT) (MB)    (MI)  (FT/S)
NY HARB ENTRANCE 0950            72 75  300/ 17/ 19 1014.0          3/ 4
GREAT SOUTH BAY  0930            73 78  300/ 12/ 14   N/A
23 SSW MONTAUK P 0950            73 71              1013.4          3/ 7
15 E BARNEGAT LI 0930               77                N/A           4/ 4
HUDSON CANYON    0950            76 74  290/ 17/ 21 1013.6          3/ 6
KINGS POINT      0936            71 75  350/ 10/ 14 1014.7
EXECUTION ROCKS  NOT AVBL
WESTERN LI SOUND NOT AVBL
CENTRAL LI SOUND NOT AVBL
EASTERN LI SOUND NOT AVBL
ROBBINS REEF     0936                   290/ 13/ 15 1015.6
$$


>>>>>>>>>>>>>>>>>>>>>>>>>>>> KEY <<<<<<<<<<<<<<<<<<<<<<<<<<<
>                                                          <
>     SKY/WX - Sky Condition/Present Weather               <
>     TMP    - Temperature in Fahrenheit                   <
>     DP     - Dew Point in Fahrenheit                     <
>     RH     - Relative Humidity in Percent                <
>     WIND   - Direction (from) and Speed in MPH           <
>     PRES   - Mean Sea Level Pressure (inches of Hg)      <
>     WCI    - Wind Chill Index                            <
>     VSB    - VISIBILITY IN MILES                         <
>     HX     - HEAT INDEX                                  <
>     TC     - TEMPERATURE IN CELSIUS                      <
>     VRB    - VARIABLE WIND DIRECTION                     <
>                                                          <
>>>>>>>>>>>>>>>>>>>>>>>>>>>> KEY <<<<<<<<<<<<<<<<<<<<<<<<<<<



USA.gov is the U.S. government's official web portal to all federal, state and local government web resources and services.